Data supplied by UK-AIR on 15/7/2016
All Data GMT hour ending 
Status: R =Ratified P=Provisional,P*=As supplied
,,Brighton Preston Park,,,,,,,,,,,,,,,,,,,,,,,
Date,time,"Nitric oxide",status,unit,"Nitrogen dioxide",status,unit,"Nitrogen oxides as nitrogen dioxide",status,unit,"Ozone",status,unit,"Daily measured PM<sub>2.5</sub> (uncorrected)",status,unit
 
01-01-2010,01:00,0.00000,R,ugm-3,10.00000,R,ugm-3,10.00000,R,ugm-3,58.00000,R,ugm-3,,,
01-01-2010,02:00,0.00000,R,ugm-3,10.00000,R,ugm-3,10.00000,R,ugm-3,58.00000,R,ugm-3,,,
01-01-2010,03:00,0.00000,R,ugm-3,8.00000,R,ugm-3,8.00000,R,ugm-3,60.00000,R,ugm-3,,,
01-01-2010,04:00,0.00000,R,ugm-3,8.00000,R,ugm-3,8.00000,R,ugm-3,64.00000,R,ugm-3,,,
01-01-2010,05:00,0.00000,R,ugm-3,6.00000,R,ugm-3,6.00000,R,ugm-3,64.00000,R,ugm-3,,,
01-01-2010,06:00,0.00000,R,ugm-3,8.00000,R,ugm-3,8.00000,R,ugm-3,62.00000,R,ugm-3,,,
01-01-2010,07:00,0.00000,R,ugm-3,8.00000,R,ugm-3,8.00000,R,ugm-3,60.00000,R,ugm-3,,,
01-01-2010,08:00,0.00000,R,ugm-3,15.00000,R,ugm-3,15.00000,R,ugm-3,50.00000,R,ugm-3,,,
01-01-2010,09:00,0.00000,R,ugm-3,23.00000,R,ugm-3,23.00000,R,ugm-3,42.00000,R,ugm-3,,,
01-01-2010,10:00,3.00000,R,ugm-3,23.00000,R,ugm-3,27.00000,R,ugm-3,44.00000,R,ugm-3,,,
01-01-2010,11:00,4.00000,R,ugm-3,21.00000,R,ugm-3,27.00000,R,ugm-3,48.00000,R,ugm-3,,,
01-01-2010,12:00,4.00000,R,ugm-3,19.00000,R,ugm-3,25.00000,R,ugm-3,50.00000,R,ugm-3,,,
01-01-2010,13:00,4.00000,R,ugm-3,19.00000,R,ugm-3,25.00000,R,ugm-3,52.00000,R,ugm-3,,,
01-01-2010,14:00,3.00000,R,ugm-3,17.00000,R,ugm-3,21.00000,R,ugm-3,58.00000,R,ugm-3,,,
01-01-2010,15:00,3.00000,R,ugm-3,21.00000,R,ugm-3,25.00000,R,ugm-3,54.00000,R,ugm-3,,,
01-01-2010,16:00,1.00000,R,ugm-3,27.00000,R,ugm-3,29.00000,R,ugm-3,46.00000,R,ugm-3,,,
01-01-2010,17:00,0.00000,R,ugm-3,36.00000,R,ugm-3,36.00000,R,ugm-3,36.00000,R,ugm-3,,,
01-01-2010,18:00,1.00000,R,ugm-3,44.00000,R,ugm-3,46.00000,R,ugm-3,26.00000,R,ugm-3,,,
01-01-2010,19:00,0.00000,R,ugm-3,34.00000,R,ugm-3,34.00000,R,ugm-3,30.00000,R,ugm-3,,,
01-01-2010,20:00,0.00000,R,ugm-3,32.00000,R,ugm-3,32.00000,R,ugm-3,32.00000,R,ugm-3,,,
01-01-2010,21:00,1.00000,R,ugm-3,38.00000,R,ugm-3,40.00000,R,ugm-3,26.00000,R,ugm-3,,,
01-01-2010,22:00,1.00000,R,ugm-3,36.00000,R,ugm-3,38.00000,R,ugm-3,24.00000,R,ugm-3,,,
01-01-2010,23:00,8.00000,R,ugm-3,46.00000,R,ugm-3,57.00000,R,ugm-3,18.00000,R,ugm-3,,,
01-01-2010,24:00,4.00000,R,ugm-3,40.00000,R,ugm-3,46.00000,R,ugm-3,24.00000,R,ugm-3,,,
02-01-2010,01:00,3.00000,R,ugm-3,50.00000,R,ugm-3,53.00000,R,ugm-3,10.00000,R,ugm-3,,,
02-01-2010,02:00,23.00000,R,ugm-3,55.00000,R,ugm-3,90.00000,R,ugm-3,2.00000,R,ugm-3,,,
02-01-2010,03:00,8.00000,R,ugm-3,34.00000,R,ugm-3,46.00000,R,ugm-3,24.00000,R,ugm-3,,,
02-01-2010,04:00,0.00000,R,ugm-3,19.00000,R,ugm-3,19.00000,R,ugm-3,38.00000,R,ugm-3,,,
02-01-2010,05:00,0.00000,R,ugm-3,13.00000,R,ugm-3,13.00000,R,ugm-3,50.00000,R,ugm-3,,,
02-01-2010,06:00,0.00000,R,ugm-3,13.00000,R,ugm-3,13.00000,R,ugm-3,46.00000,R,ugm-3,,,
02-01-2010,07:00,0.00000,R,ugm-3,17.00000,R,ugm-3,17.00000,R,ugm-3,38.00000,R,ugm-3,,,
02-01-2010,08:00,1.00000,R,ugm-3,36.00000,R,ugm-3,38.00000,R,ugm-3,20.00000,R,ugm-3,,,
02-01-2010,09:00,3.00000,R,ugm-3,34.00000,R,ugm-3,38.00000,R,ugm-3,24.00000,R,ugm-3,,,
02-01-2010,10:00,5.00000,R,ugm-3,27.00000,R,ugm-3,34.00000,R,ugm-3,30.00000,R,ugm-3,,,
02-01-2010,11:00,5.00000,R,ugm-3,19.00000,R,ugm-3,27.00000,R,ugm-3,42.00000,R,ugm-3,,,
02-01-2010,12:00,3.00000,R,ugm-3,17.00000,R,ugm-3,21.00000,R,ugm-3,48.00000,R,ugm-3,,,
02-01-2010,13:00,3.00000,R,ugm-3,13.00000,R,ugm-3,17.00000,R,ugm-3,50.00000,R,ugm-3,,,
02-01-2010,14:00,1.00000,R,ugm-3,13.00000,R,ugm-3,15.00000,R,ugm-3,54.00000,R,ugm-3,,,
02-01-2010,15:00,3.00000,R,ugm-3,25.00000,R,ugm-3,29.00000,R,ugm-3,40.00000,R,ugm-3,,,
02-01-2010,16:00,5.00000,R,ugm-3,46.00000,R,ugm-3,53.00000,R,ugm-3,20.00000,R,ugm-3,,,
02-01-2010,17:00,8.00000,R,ugm-3,59.00000,R,ugm-3,71.00000,R,ugm-3,6.00000,R,ugm-3,,,
02-01-2010,18:00,14.00000,R,ugm-3,63.00000,R,ugm-3,84.00000,R,ugm-3,6.00000,R,ugm-3,,,
02-01-2010,19:00,121.00000,R,ugm-3,90.00000,R,ugm-3,275.00000,R,ugm-3,4.00000,R,ugm-3,,,
02-01-2010,20:00,141.00000,R,ugm-3,90.00000,R,ugm-3,306.00000,R,ugm-3,4.00000,R,ugm-3,,,
02-01-2010,21:00,90.00000,R,ugm-3,69.00000,R,ugm-3,206.00000,R,ugm-3,6.00000,R,ugm-3,,,
02-01-2010,22:00,9.00000,R,ugm-3,50.00000,R,ugm-3,63.00000,R,ugm-3,14.00000,R,ugm-3,,,
02-01-2010,23:00,8.00000,R,ugm-3,40.00000,R,ugm-3,52.00000,R,ugm-3,20.00000,R,ugm-3,,,
02-01-2010,24:00,10.00000,R,ugm-3,42.00000,R,ugm-3,57.00000,R,ugm-3,16.00000,R,ugm-3,,,
03-01-2010,01:00,18.00000,R,ugm-3,50.00000,R,ugm-3,76.00000,R,ugm-3,10.00000,R,ugm-3,,,
03-01-2010,02:00,0.00000,R,ugm-3,19.00000,R,ugm-3,19.00000,R,ugm-3,36.00000,R,ugm-3,,,
03-01-2010,03:00,1.00000,R,ugm-3,23.00000,R,ugm-3,25.00000,R,ugm-3,26.00000,R,ugm-3,,,
03-01-2010,04:00,0.00000,R,ugm-3,25.00000,R,ugm-3,25.00000,R,ugm-3,28.00000,R,ugm-3,,,
03-01-2010,05:00,0.00000,R,ugm-3,21.00000,R,ugm-3,21.00000,R,ugm-3,30.00000,R,ugm-3,,,
03-01-2010,06:00,0.00000,R,ugm-3,17.00000,R,ugm-3,17.00000,R,ugm-3,36.00000,R,ugm-3,,,
03-01-2010,07:00,0.00000,R,ugm-3,15.00000,R,ugm-3,15.00000,R,ugm-3,38.00000,R,ugm-3,,,
03-01-2010,08:00,0.00000,R,ugm-3,13.00000,R,ugm-3,13.00000,R,ugm-3,42.00000,R,ugm-3,,,
03-01-2010,09:00,0.00000,R,ugm-3,13.00000,R,ugm-3,13.00000,R,ugm-3,44.00000,R,ugm-3,,,
03-01-2010,10:00,1.00000,R,ugm-3,13.00000,R,ugm-3,15.00000,R,ugm-3,42.00000,R,ugm-3,,,
03-01-2010,11:00,3.00000,R,ugm-3,13.00000,R,ugm-3,17.00000,R,ugm-3,38.00000,R,ugm-3,,,
03-01-2010,12:00,3.00000,R,ugm-3,15.00000,R,ugm-3,19.00000,R,ugm-3,40.00000,R,ugm-3,,,
03-01-2010,13:00,3.00000,R,ugm-3,13.00000,R,ugm-3,17.00000,R,ugm-3,38.00000,R,ugm-3,,,
03-01-2010,14:00,1.00000,R,ugm-3,13.00000,R,ugm-3,15.00000,R,ugm-3,38.00000,R,ugm-3,,,
03-01-2010,15:00,1.00000,R,ugm-3,17.00000,R,ugm-3,19.00000,R,ugm-3,36.00000,R,ugm-3,,,
03-01-2010,16:00,1.00000,R,ugm-3,21.00000,R,ugm-3,23.00000,R,ugm-3,28.00000,R,ugm-3,,,
03-01-2010,17:00,1.00000,R,ugm-3,27.00000,R,ugm-3,29.00000,R,ugm-3,22.00000,R,ugm-3,,,
03-01-2010,18:00,1.00000,R,ugm-3,23.00000,R,ugm-3,25.00000,R,ugm-3,26.00000,R,ugm-3,,,
03-01-2010,19:00,1.00000,R,ugm-3,27.00000,R,ugm-3,29.00000,R,ugm-3,22.00000,R,ugm-3,,,
03-01-2010,20:00,1.00000,R,ugm-3,25.00000,R,ugm-3,27.00000,R,ugm-3,22.00000,R,ugm-3,,,
03-01-2010,21:00,8.00000,R,ugm-3,36.00000,R,ugm-3,48.00000,R,ugm-3,12.00000,R,ugm-3,,,
03-01-2010,22:00,1.00000,R,ugm-3,29.00000,R,ugm-3,31.00000,R,ugm-3,16.00000,R,ugm-3,,,
03-01-2010,23:00,1.00000,R,ugm-3,32.00000,R,ugm-3,34.00000,R,ugm-3,12.00000,R,ugm-3,,,
03-01-2010,24:00,1.00000,R,ugm-3,27.00000,R,ugm-3,29.00000,R,ugm-3,14.00000,R,ugm-3,,,
04-01-2010,01:00,0.00000,R,ugm-3,32.00000,R,ugm-3,32.00000,R,ugm-3,12.00000,R,ugm-3,,,
04-01-2010,02:00,1.00000,R,ugm-3,34.00000,R,ugm-3,36.00000,R,ugm-3,10.00000,R,ugm-3,,,
04-01-2010,03:00,1.00000,R,ugm-3,38.00000,R,ugm-3,40.00000,R,ugm-3,4.00000,R,ugm-3,,,
04-01-2010,04:00,1.00000,R,ugm-3,36.00000,R,ugm-3,38.00000,R,ugm-3,10.00000,R,ugm-3,,,
04-01-2010,05:00,0.00000,R,ugm-3,32.00000,R,ugm-3,32.00000,R,ugm-3,14.00000,R,ugm-3,,,
04-01-2010,06:00,1.00000,R,ugm-3,31.00000,R,ugm-3,32.00000,R,ugm-3,12.00000,R,ugm-3,,,
04-01-2010,07:00,14.00000,R,ugm-3,40.00000,R,ugm-3,61.00000,R,ugm-3,4.00000,R,ugm-3,,,
04-01-2010,08:00,41.00000,R,ugm-3,50.00000,R,ugm-3,113.00000,R,ugm-3,4.00000,R,ugm-3,,,
04-01-2010,09:00,58.00000,R,ugm-3,52.00000,R,ugm-3,139.00000,R,ugm-3,4.00000,R,ugm-3,,,
04-01-2010,10:00,31.00000,R,ugm-3,40.00000,R,ugm-3,88.00000,R,ugm-3,10.00000,R,ugm-3,,,
04-01-2010,11:00,26.00000,R,ugm-3,36.00000,R,ugm-3,76.00000,R,ugm-3,16.00000,R,ugm-3,,,
04-01-2010,12:00,20.00000,R,ugm-3,31.00000,R,ugm-3,61.00000,R,ugm-3,18.00000,R,ugm-3,,,
04-01-2010,13:00,14.00000,R,ugm-3,27.00000,R,ugm-3,48.00000,R,ugm-3,28.00000,R,ugm-3,,,
04-01-2010,14:00,6.00000,R,ugm-3,25.00000,R,ugm-3,34.00000,R,ugm-3,36.00000,R,ugm-3,,,
04-01-2010,15:00,10.00000,R,ugm-3,32.00000,R,ugm-3,48.00000,R,ugm-3,24.00000,R,ugm-3,,,
04-01-2010,16:00,9.00000,R,ugm-3,38.00000,R,ugm-3,52.00000,R,ugm-3,16.00000,R,ugm-3,,,
04-01-2010,17:00,19.00000,R,ugm-3,52.00000,R,ugm-3,80.00000,R,ugm-3,8.00000,R,ugm-3,,,
04-01-2010,18:00,43.00000,R,ugm-3,61.00000,R,ugm-3,126.00000,R,ugm-3,6.00000,R,ugm-3,,,
04-01-2010,19:00,20.00000,R,ugm-3,53.00000,R,ugm-3,84.00000,R,ugm-3,6.00000,R,ugm-3,,,
04-01-2010,20:00,14.00000,R,ugm-3,52.00000,R,ugm-3,73.00000,R,ugm-3,6.00000,R,ugm-3,,,
04-01-2010,21:00,10.00000,R,ugm-3,48.00000,R,ugm-3,63.00000,R,ugm-3,4.00000,R,ugm-3,,,
04-01-2010,22:00,11.00000,R,ugm-3,48.00000,R,ugm-3,65.00000,R,ugm-3,4.00000,R,ugm-3,,,
04-01-2010,23:00,14.00000,R,ugm-3,48.00000,R,ugm-3,69.00000,R,ugm-3,4.00000,R,ugm-3,,,
04-01-2010,24:00,15.00000,R,ugm-3,48.00000,R,ugm-3,71.00000,R,ugm-3,4.00000,R,ugm-3,,,
05-01-2010,01:00,4.00000,R,ugm-3,42.00000,R,ugm-3,48.00000,R,ugm-3,4.00000,R,ugm-3,,,
05-01-2010,02:00,5.00000,R,ugm-3,42.00000,R,ugm-3,50.00000,R,ugm-3,4.00000,R,ugm-3,,,
05-01-2010,03:00,4.00000,R,ugm-3,40.00000,R,ugm-3,46.00000,R,ugm-3,6.00000,R,ugm-3,,,
05-01-2010,04:00,13.00000,R,ugm-3,40.00000,R,ugm-3,59.00000,R,ugm-3,2.00000,R,ugm-3,,,
05-01-2010,05:00,26.00000,R,ugm-3,38.00000,R,ugm-3,78.00000,R,ugm-3,2.00000,R,ugm-3,,,
05-01-2010,06:00,45.00000,R,ugm-3,38.00000,R,ugm-3,107.00000,R,ugm-3,2.00000,R,ugm-3,,,
05-01-2010,07:00,79.00000,R,ugm-3,44.00000,R,ugm-3,164.00000,R,ugm-3,2.00000,R,ugm-3,,,
05-01-2010,08:00,178.00000,R,ugm-3,71.00000,R,ugm-3,342.00000,R,ugm-3,0.00000,R,ugm-3,,,
05-01-2010,09:00,405.00000,R,ugm-3,120.00000,R,ugm-3,739.00000,R,ugm-3,2.00000,R,ugm-3,,,
05-01-2010,10:00,399.00000,R,ugm-3,124.00000,R,ugm-3,733.00000,R,ugm-3,2.00000,R,ugm-3,,,
05-01-2010,11:00,303.00000,R,ugm-3,103.00000,R,ugm-3,565.00000,R,ugm-3,2.00000,R,ugm-3,,,
05-01-2010,12:00,25.00000,R,ugm-3,46.00000,R,ugm-3,84.00000,R,ugm-3,16.00000,R,ugm-3,,,
05-01-2010,13:00,11.00000,R,ugm-3,32.00000,R,ugm-3,50.00000,R,ugm-3,30.00000,R,ugm-3,,,
05-01-2010,14:00,9.00000,R,ugm-3,36.00000,R,ugm-3,50.00000,R,ugm-3,28.00000,R,ugm-3,,,
05-01-2010,15:00,6.00000,R,ugm-3,38.00000,R,ugm-3,48.00000,R,ugm-3,22.00000,R,ugm-3,,,
05-01-2010,16:00,25.00000,R,ugm-3,59.00000,R,ugm-3,97.00000,R,ugm-3,8.00000,R,ugm-3,,,
05-01-2010,17:00,101.00000,R,ugm-3,86.00000,R,ugm-3,241.00000,R,ugm-3,2.00000,R,ugm-3,,,
05-01-2010,18:00,136.00000,R,ugm-3,90.00000,R,ugm-3,298.00000,R,ugm-3,2.00000,R,ugm-3,,,
05-01-2010,19:00,123.00000,R,ugm-3,78.00000,R,ugm-3,265.00000,R,ugm-3,14.00000,R,ugm-3,,,
05-01-2010,20:00,1.00000,R,ugm-3,31.00000,R,ugm-3,32.00000,R,ugm-3,38.00000,R,ugm-3,,,
05-01-2010,21:00,1.00000,R,ugm-3,38.00000,R,ugm-3,40.00000,R,ugm-3,32.00000,R,ugm-3,,,
05-01-2010,22:00,0.00000,R,ugm-3,13.00000,R,ugm-3,13.00000,R,ugm-3,50.00000,R,ugm-3,,,
05-01-2010,23:00,0.00000,R,ugm-3,10.00000,R,ugm-3,10.00000,R,ugm-3,54.00000,R,ugm-3,,,
05-01-2010,24:00,0.00000,R,ugm-3,10.00000,R,ugm-3,10.00000,R,ugm-3,54.00000,R,ugm-3,,,
06-01-2010,01:00,0.00000,R,ugm-3,8.00000,R,ugm-3,8.00000,R,ugm-3,56.00000,R,ugm-3,,,
06-01-2010,02:00,0.00000,R,ugm-3,15.00000,R,ugm-3,15.00000,R,ugm-3,50.00000,R,ugm-3,,,
06-01-2010,03:00,0.00000,R,ugm-3,11.00000,R,ugm-3,11.00000,R,ugm-3,50.00000,R,ugm-3,,,
06-01-2010,04:00,0.00000,R,ugm-3,10.00000,R,ugm-3,10.00000,R,ugm-3,54.00000,R,ugm-3,,,
06-01-2010,05:00,0.00000,R,ugm-3,10.00000,R,ugm-3,10.00000,R,ugm-3,46.00000,R,ugm-3,,,
06-01-2010,06:00,0.00000,R,ugm-3,10.00000,R,ugm-3,10.00000,R,ugm-3,46.00000,R,ugm-3,,,
06-01-2010,07:00,0.00000,R,ugm-3,11.00000,R,ugm-3,11.00000,R,ugm-3,48.00000,R,ugm-3,,,
06-01-2010,08:00,0.00000,R,ugm-3,15.00000,R,ugm-3,15.00000,R,ugm-3,44.00000,R,ugm-3,,,
06-01-2010,09:00,0.00000,R,ugm-3,13.00000,R,ugm-3,13.00000,R,ugm-3,54.00000,R,ugm-3,,,
06-01-2010,10:00,0.00000,R,ugm-3,15.00000,R,ugm-3,15.00000,R,ugm-3,54.00000,R,ugm-3,,,
06-01-2010,11:00,0.00000,R,ugm-3,11.00000,R,ugm-3,11.00000,R,ugm-3,62.00000,R,ugm-3,,,
06-01-2010,12:00,1.00000,R,ugm-3,13.00000,R,ugm-3,15.00000,R,ugm-3,58.00000,R,ugm-3,,,
06-01-2010,13:00,1.00000,R,ugm-3,17.00000,R,ugm-3,19.00000,R,ugm-3,54.00000,R,ugm-3,,,
06-01-2010,14:00,1.00000,R,ugm-3,19.00000,R,ugm-3,21.00000,R,ugm-3,52.00000,R,ugm-3,,,
06-01-2010,15:00,1.00000,R,ugm-3,23.00000,R,ugm-3,25.00000,R,ugm-3,42.00000,R,ugm-3,,,
06-01-2010,16:00,1.00000,R,ugm-3,25.00000,R,ugm-3,27.00000,R,ugm-3,38.00000,R,ugm-3,,,
06-01-2010,17:00,1.00000,R,ugm-3,40.00000,R,ugm-3,42.00000,R,ugm-3,22.00000,R,ugm-3,,,
06-01-2010,18:00,1.00000,R,ugm-3,40.00000,R,ugm-3,42.00000,R,ugm-3,24.00000,R,ugm-3,,,
06-01-2010,19:00,0.00000,R,ugm-3,25.00000,R,ugm-3,25.00000,R,ugm-3,42.00000,R,ugm-3,,,
06-01-2010,20:00,0.00000,R,ugm-3,15.00000,R,ugm-3,15.00000,R,ugm-3,56.00000,R,ugm-3,,,
06-01-2010,21:00,0.00000,R,ugm-3,13.00000,R,ugm-3,13.00000,R,ugm-3,60.00000,R,ugm-3,,,
06-01-2010,22:00,0.00000,R,ugm-3,11.00000,R,ugm-3,11.00000,R,ugm-3,64.00000,R,ugm-3,,,
06-01-2010,23:00,0.00000,R,ugm-3,13.00000,R,ugm-3,13.00000,R,ugm-3,60.00000,R,ugm-3,,,
06-01-2010,24:00,0.00000,R,ugm-3,15.00000,R,ugm-3,15.00000,R,ugm-3,60.00000,R,ugm-3,,,
07-01-2010,01:00,0.00000,R,ugm-3,17.00000,R,ugm-3,17.00000,R,ugm-3,58.00000,R,ugm-3,,,
07-01-2010,02:00,0.00000,R,ugm-3,23.00000,R,ugm-3,23.00000,R,ugm-3,48.00000,R,ugm-3,,,
07-01-2010,03:00,0.00000,R,ugm-3,19.00000,R,ugm-3,19.00000,R,ugm-3,52.00000,R,ugm-3,,,
07-01-2010,04:00,0.00000,R,ugm-3,21.00000,R,ugm-3,21.00000,R,ugm-3,50.00000,R,ugm-3,,,
07-01-2010,05:00,0.00000,R,ugm-3,21.00000,R,ugm-3,21.00000,R,ugm-3,46.00000,R,ugm-3,,,
07-01-2010,06:00,0.00000,R,ugm-3,25.00000,R,ugm-3,25.00000,R,ugm-3,42.00000,R,ugm-3,,,
07-01-2010,07:00,0.00000,R,ugm-3,29.00000,R,ugm-3,29.00000,R,ugm-3,38.00000,R,ugm-3,,,
07-01-2010,08:00,1.00000,R,ugm-3,32.00000,R,ugm-3,34.00000,R,ugm-3,32.00000,R,ugm-3,,,
07-01-2010,09:00,4.00000,R,ugm-3,34.00000,R,ugm-3,40.00000,R,ugm-3,26.00000,R,ugm-3,,,
07-01-2010,10:00,10.00000,R,ugm-3,31.00000,R,ugm-3,46.00000,R,ugm-3,34.00000,R,ugm-3,,,
07-01-2010,11:00,9.00000,R,ugm-3,25.00000,R,ugm-3,38.00000,R,ugm-3,42.00000,R,ugm-3,,,
07-01-2010,12:00,9.00000,R,ugm-3,23.00000,R,ugm-3,36.00000,R,ugm-3,44.00000,R,ugm-3,,,
07-01-2010,13:00,8.00000,R,ugm-3,23.00000,R,ugm-3,34.00000,R,ugm-3,48.00000,R,ugm-3,,,
07-01-2010,14:00,9.00000,R,ugm-3,25.00000,R,ugm-3,38.00000,R,ugm-3,46.00000,R,ugm-3,,,
07-01-2010,15:00,8.00000,R,ugm-3,31.00000,R,ugm-3,42.00000,R,ugm-3,42.00000,R,ugm-3,,,
07-01-2010,16:00,8.00000,R,ugm-3,46.00000,R,ugm-3,57.00000,R,ugm-3,28.00000,R,ugm-3,,,
07-01-2010,17:00,1.00000,R,ugm-3,46.00000,R,ugm-3,48.00000,R,ugm-3,28.00000,R,ugm-3,,,
07-01-2010,18:00,1.00000,R,ugm-3,42.00000,R,ugm-3,44.00000,R,ugm-3,30.00000,R,ugm-3,,,
07-01-2010,19:00,0.00000,R,ugm-3,44.00000,R,ugm-3,44.00000,R,ugm-3,24.00000,R,ugm-3,,,
07-01-2010,20:00,1.00000,R,ugm-3,44.00000,R,ugm-3,46.00000,R,ugm-3,24.00000,R,ugm-3,,,
07-01-2010,21:00,1.00000,R,ugm-3,42.00000,R,ugm-3,44.00000,R,ugm-3,22.00000,R,ugm-3,,,
07-01-2010,22:00,0.00000,R,ugm-3,40.00000,R,ugm-3,40.00000,R,ugm-3,24.00000,R,ugm-3,,,
07-01-2010,23:00,0.00000,R,ugm-3,19.00000,R,ugm-3,19.00000,R,ugm-3,42.00000,R,ugm-3,,,
07-01-2010,24:00,0.00000,R,ugm-3,21.00000,R,ugm-3,21.00000,R,ugm-3,36.00000,R,ugm-3,,,
08-01-2010,01:00,0.00000,R,ugm-3,23.00000,R,ugm-3,23.00000,R,ugm-3,34.00000,R,ugm-3,,,
08-01-2010,02:00,0.00000,R,ugm-3,21.00000,R,ugm-3,21.00000,R,ugm-3,36.00000,R,ugm-3,,,
08-01-2010,03:00,0.00000,R,ugm-3,21.00000,R,ugm-3,21.00000,R,ugm-3,34.00000,R,ugm-3,,,
08-01-2010,04:00,0.00000,R,ugm-3,21.00000,R,ugm-3,21.00000,R,ugm-3,36.00000,R,ugm-3,,,
08-01-2010,05:00,0.00000,R,ugm-3,19.00000,R,ugm-3,19.00000,R,ugm-3,38.00000,R,ugm-3,,,
08-01-2010,06:00,0.00000,R,ugm-3,17.00000,R,ugm-3,17.00000,R,ugm-3,38.00000,R,ugm-3,,,
08-01-2010,07:00,0.00000,R,ugm-3,19.00000,R,ugm-3,19.00000,R,ugm-3,42.00000,R,ugm-3,,,
08-01-2010,08:00,0.00000,R,ugm-3,21.00000,R,ugm-3,21.00000,R,ugm-3,38.00000,R,ugm-3,,,
08-01-2010,09:00,1.00000,R,ugm-3,25.00000,R,ugm-3,27.00000,R,ugm-3,34.00000,R,ugm-3,,,
08-01-2010,10:00,5.00000,R,ugm-3,31.00000,R,ugm-3,38.00000,R,ugm-3,32.00000,R,ugm-3,,,
08-01-2010,11:00,8.00000,R,ugm-3,29.00000,R,ugm-3,40.00000,R,ugm-3,38.00000,R,ugm-3,,,
08-01-2010,12:00,9.00000,R,ugm-3,29.00000,R,ugm-3,42.00000,R,ugm-3,40.00000,R,ugm-3,,,
08-01-2010,13:00,9.00000,R,ugm-3,29.00000,R,ugm-3,42.00000,R,ugm-3,40.00000,R,ugm-3,,,
08-01-2010,14:00,10.00000,R,ugm-3,31.00000,R,ugm-3,46.00000,R,ugm-3,38.00000,R,ugm-3,,,
08-01-2010,15:00,9.00000,R,ugm-3,32.00000,R,ugm-3,46.00000,R,ugm-3,34.00000,R,ugm-3,,,
08-01-2010,16:00,5.00000,R,ugm-3,38.00000,R,ugm-3,46.00000,R,ugm-3,28.00000,R,ugm-3,,,
08-01-2010,17:00,3.00000,R,ugm-3,50.00000,R,ugm-3,53.00000,R,ugm-3,18.00000,R,ugm-3,,,
08-01-2010,18:00,1.00000,R,ugm-3,53.00000,R,ugm-3,55.00000,R,ugm-3,14.00000,R,ugm-3,,,
08-01-2010,19:00,3.00000,R,ugm-3,53.00000,R,ugm-3,57.00000,R,ugm-3,12.00000,R,ugm-3,,,
08-01-2010,20:00,1.00000,R,ugm-3,44.00000,R,ugm-3,46.00000,R,ugm-3,20.00000,R,ugm-3,,,
08-01-2010,21:00,0.00000,R,ugm-3,36.00000,R,ugm-3,36.00000,R,ugm-3,32.00000,R,ugm-3,,,
08-01-2010,22:00,0.00000,R,ugm-3,38.00000,R,ugm-3,38.00000,R,ugm-3,30.00000,R,ugm-3,,,
08-01-2010,23:00,0.00000,R,ugm-3,40.00000,R,ugm-3,40.00000,R,ugm-3,28.00000,R,ugm-3,,,
08-01-2010,24:00,0.00000,R,ugm-3,31.00000,R,ugm-3,31.00000,R,ugm-3,36.00000,R,ugm-3,,,
09-01-2010,01:00,0.00000,R,ugm-3,25.00000,R,ugm-3,25.00000,R,ugm-3,40.00000,R,ugm-3,,,
09-01-2010,02:00,0.00000,R,ugm-3,23.00000,R,ugm-3,23.00000,R,ugm-3,42.00000,R,ugm-3,,,
09-01-2010,03:00,0.00000,R,ugm-3,17.00000,R,ugm-3,17.00000,R,ugm-3,48.00000,R,ugm-3,,,
09-01-2010,04:00,0.00000,R,ugm-3,13.00000,R,ugm-3,13.00000,R,ugm-3,54.00000,R,ugm-3,,,
09-01-2010,05:00,0.00000,R,ugm-3,13.00000,R,ugm-3,13.00000,R,ugm-3,52.00000,R,ugm-3,,,
09-01-2010,06:00,0.00000,R,ugm-3,13.00000,R,ugm-3,13.00000,R,ugm-3,52.00000,R,ugm-3,,,
09-01-2010,07:00,0.00000,R,ugm-3,13.00000,R,ugm-3,13.00000,R,ugm-3,52.00000,R,ugm-3,,,
09-01-2010,08:00,0.00000,R,ugm-3,15.00000,R,ugm-3,15.00000,R,ugm-3,54.00000,R,ugm-3,,,
09-01-2010,09:00,1.00000,R,ugm-3,17.00000,R,ugm-3,19.00000,R,ugm-3,50.00000,R,ugm-3,,,
09-01-2010,10:00,1.00000,R,ugm-3,17.00000,R,ugm-3,19.00000,R,ugm-3,54.00000,R,ugm-3,,,
09-01-2010,11:00,3.00000,R,ugm-3,17.00000,R,ugm-3,21.00000,R,ugm-3,56.00000,R,ugm-3,,,
09-01-2010,12:00,3.00000,R,ugm-3,15.00000,R,ugm-3,19.00000,R,ugm-3,58.00000,R,ugm-3,,,
09-01-2010,13:00,3.00000,R,ugm-3,13.00000,R,ugm-3,17.00000,R,ugm-3,62.00000,R,ugm-3,,,
09-01-2010,14:00,1.00000,R,ugm-3,13.00000,R,ugm-3,15.00000,R,ugm-3,60.00000,R,ugm-3,,,
09-01-2010,15:00,1.00000,R,ugm-3,13.00000,R,ugm-3,15.00000,R,ugm-3,64.00000,R,ugm-3,,,
09-01-2010,16:00,0.00000,R,ugm-3,15.00000,R,ugm-3,15.00000,R,ugm-3,64.00000,R,ugm-3,,,
09-01-2010,17:00,0.00000,R,ugm-3,15.00000,R,ugm-3,15.00000,R,ugm-3,60.00000,R,ugm-3,,,
09-01-2010,18:00,0.00000,R,ugm-3,15.00000,R,ugm-3,15.00000,R,ugm-3,58.00000,R,ugm-3,,,
09-01-2010,19:00,0.00000,R,ugm-3,15.00000,R,ugm-3,15.00000,R,ugm-3,58.00000,R,ugm-3,,,
09-01-2010,20:00,0.00000,R,ugm-3,13.00000,R,ugm-3,13.00000,R,ugm-3,58.00000,R,ugm-3,,,
09-01-2010,21:00,0.00000,R,ugm-3,13.00000,R,ugm-3,13.00000,R,ugm-3,62.00000,R,ugm-3,,,
09-01-2010,22:00,0.00000,R,ugm-3,13.00000,R,ugm-3,13.00000,R,ugm-3,60.00000,R,ugm-3,,,
09-01-2010,23:00,0.00000,R,ugm-3,11.00000,R,ugm-3,11.00000,R,ugm-3,60.00000,R,ugm-3,,,
09-01-2010,24:00,0.00000,R,ugm-3,10.00000,R,ugm-3,10.00000,R,ugm-3,60.00000,R,ugm-3,,,
10-01-2010,01:00,0.00000,R,ugm-3,8.00000,R,ugm-3,8.00000,R,ugm-3,58.00000,R,ugm-3,,,
10-01-2010,02:00,0.00000,R,ugm-3,8.00000,R,ugm-3,8.00000,R,ugm-3,58.00000,R,ugm-3,,,
10-01-2010,03:00,0.00000,R,ugm-3,8.00000,R,ugm-3,8.00000,R,ugm-3,62.00000,R,ugm-3,,,
10-01-2010,04:00,0.00000,R,ugm-3,6.00000,R,ugm-3,6.00000,R,ugm-3,62.00000,R,ugm-3,,,
10-01-2010,05:00,0.00000,R,ugm-3,6.00000,R,ugm-3,6.00000,R,ugm-3,62.00000,R,ugm-3,,,
10-01-2010,06:00,0.00000,R,ugm-3,8.00000,R,ugm-3,8.00000,R,ugm-3,62.00000,R,ugm-3,,,
10-01-2010,07:00,0.00000,R,ugm-3,10.00000,R,ugm-3,10.00000,R,ugm-3,62.00000,R,ugm-3,,,
10-01-2010,08:00,0.00000,R,ugm-3,11.00000,R,ugm-3,11.00000,R,ugm-3,60.00000,R,ugm-3,,,
10-01-2010,09:00,0.00000,R,ugm-3,11.00000,R,ugm-3,11.00000,R,ugm-3,60.00000,R,ugm-3,,,
10-01-2010,10:00,0.00000,R,ugm-3,11.00000,R,ugm-3,11.00000,R,ugm-3,58.00000,R,ugm-3,,,
10-01-2010,11:00,0.00000,R,ugm-3,15.00000,R,ugm-3,15.00000,R,ugm-3,56.00000,R,ugm-3,,,
10-01-2010,12:00,1.00000,R,ugm-3,15.00000,R,ugm-3,17.00000,R,ugm-3,52.00000,R,ugm-3,,,
10-01-2010,13:00,1.00000,R,ugm-3,17.00000,R,ugm-3,19.00000,R,ugm-3,54.00000,R,ugm-3,,,
10-01-2010,14:00,1.00000,R,ugm-3,19.00000,R,ugm-3,21.00000,R,ugm-3,52.00000,R,ugm-3,,,
10-01-2010,15:00,1.00000,R,ugm-3,17.00000,R,ugm-3,19.00000,R,ugm-3,52.00000,R,ugm-3,,,
10-01-2010,16:00,1.00000,R,ugm-3,21.00000,R,ugm-3,23.00000,R,ugm-3,48.00000,R,ugm-3,,,
10-01-2010,17:00,3.00000,R,ugm-3,27.00000,R,ugm-3,31.00000,R,ugm-3,42.00000,R,ugm-3,,,
10-01-2010,18:00,0.00000,R,ugm-3,25.00000,R,ugm-3,25.00000,R,ugm-3,42.00000,R,ugm-3,,,
10-01-2010,19:00,0.00000,R,ugm-3,23.00000,R,ugm-3,23.00000,R,ugm-3,42.00000,R,ugm-3,,,
10-01-2010,20:00,0.00000,R,ugm-3,25.00000,R,ugm-3,25.00000,R,ugm-3,38.00000,R,ugm-3,,,
10-01-2010,21:00,0.00000,R,ugm-3,27.00000,R,ugm-3,27.00000,R,ugm-3,34.00000,R,ugm-3,,,
10-01-2010,22:00,0.00000,R,ugm-3,23.00000,R,ugm-3,23.00000,R,ugm-3,36.00000,R,ugm-3,,,
10-01-2010,23:00,0.00000,R,ugm-3,19.00000,R,ugm-3,19.00000,R,ugm-3,36.00000,R,ugm-3,,,
10-01-2010,24:00,0.00000,R,ugm-3,19.00000,R,ugm-3,19.00000,R,ugm-3,34.00000,R,ugm-3,,,
11-01-2010,01:00,0.00000,R,ugm-3,15.00000,R,ugm-3,15.00000,R,ugm-3,36.00000,R,ugm-3,,,
11-01-2010,02:00,0.00000,R,ugm-3,15.00000,R,ugm-3,15.00000,R,ugm-3,34.00000,R,ugm-3,,,
11-01-2010,03:00,0.00000,R,ugm-3,15.00000,R,ugm-3,15.00000,R,ugm-3,34.00000,R,ugm-3,,,
11-01-2010,04:00,0.00000,R,ugm-3,15.00000,R,ugm-3,15.00000,R,ugm-3,30.00000,R,ugm-3,,,
11-01-2010,05:00,0.00000,R,ugm-3,15.00000,R,ugm-3,15.00000,R,ugm-3,30.00000,R,ugm-3,,,
11-01-2010,06:00,0.00000,R,ugm-3,19.00000,R,ugm-3,19.00000,R,ugm-3,24.00000,R,ugm-3,,,
11-01-2010,07:00,1.00000,R,ugm-3,25.00000,R,ugm-3,27.00000,R,ugm-3,20.00000,R,ugm-3,,,
11-01-2010,08:00,3.00000,R,ugm-3,32.00000,R,ugm-3,36.00000,R,ugm-3,14.00000,R,ugm-3,,,
11-01-2010,09:00,5.00000,R,ugm-3,34.00000,R,ugm-3,42.00000,R,ugm-3,10.00000,R,ugm-3,,,
11-01-2010,10:00,8.00000,R,ugm-3,32.00000,R,ugm-3,44.00000,R,ugm-3,14.00000,R,ugm-3,,,
11-01-2010,11:00,8.00000,R,ugm-3,32.00000,R,ugm-3,44.00000,R,ugm-3,14.00000,R,ugm-3,,,
11-01-2010,12:00,9.00000,R,ugm-3,32.00000,R,ugm-3,46.00000,R,ugm-3,16.00000,R,ugm-3,,,
11-01-2010,13:00,9.00000,R,ugm-3,31.00000,R,ugm-3,44.00000,R,ugm-3,20.00000,R,ugm-3,,,
11-01-2010,14:00,8.00000,R,ugm-3,31.00000,R,ugm-3,42.00000,R,ugm-3,18.00000,R,ugm-3,,,
11-01-2010,15:00,9.00000,R,ugm-3,36.00000,R,ugm-3,50.00000,R,ugm-3,14.00000,R,ugm-3,,,
11-01-2010,16:00,9.00000,R,ugm-3,38.00000,R,ugm-3,52.00000,R,ugm-3,10.00000,R,ugm-3,,,
11-01-2010,17:00,,,,,,,,,,,,,,,
11-01-2010,18:00,,,,,,,,,,6.00000,R,ugm-3,,,
11-01-2010,19:00,8.00000,R,ugm-3,44.00000,R,ugm-3,55.00000,R,ugm-3,4.00000,R,ugm-3,,,
11-01-2010,20:00,8.00000,R,ugm-3,46.00000,R,ugm-3,57.00000,R,ugm-3,2.00000,R,ugm-3,,,
11-01-2010,21:00,13.00000,R,ugm-3,52.00000,R,ugm-3,71.00000,R,ugm-3,2.00000,R,ugm-3,,,
11-01-2010,22:00,19.00000,R,ugm-3,50.00000,R,ugm-3,78.00000,R,ugm-3,2.00000,R,ugm-3,,,
11-01-2010,23:00,14.00000,R,ugm-3,48.00000,R,ugm-3,69.00000,R,ugm-3,2.00000,R,ugm-3,,,
11-01-2010,24:00,11.00000,R,ugm-3,46.00000,R,ugm-3,63.00000,R,ugm-3,0.00000,R,ugm-3,,,
12-01-2010,01:00,8.00000,R,ugm-3,44.00000,R,ugm-3,55.00000,R,ugm-3,0.00000,R,ugm-3,,,
12-01-2010,02:00,6.00000,R,ugm-3,42.00000,R,ugm-3,52.00000,R,ugm-3,0.00000,R,ugm-3,,,
12-01-2010,03:00,4.00000,R,ugm-3,44.00000,R,ugm-3,50.00000,R,ugm-3,0.00000,R,ugm-3,,,
12-01-2010,04:00,4.00000,R,ugm-3,44.00000,R,ugm-3,50.00000,R,ugm-3,0.00000,R,ugm-3,,,
12-01-2010,05:00,4.00000,R,ugm-3,46.00000,R,ugm-3,52.00000,R,ugm-3,0.00000,R,ugm-3,,,
12-01-2010,06:00,5.00000,R,ugm-3,44.00000,R,ugm-3,52.00000,R,ugm-3,2.00000,R,ugm-3,,,
12-01-2010,07:00,4.00000,R,ugm-3,38.00000,R,ugm-3,44.00000,R,ugm-3,4.00000,R,ugm-3,,,
12-01-2010,08:00,11.00000,R,ugm-3,38.00000,R,ugm-3,55.00000,R,ugm-3,6.00000,R,ugm-3,,,